Regional Weather Roundup
Issued by NWS

Home | Current Version | Previous Version | Text Only | Print | Product List | Glossary Off
Versions: 1 2 3 4 5 6 7 8 9 10 11 12 13 14 15 16 17 18 19 20 21 22 23 24 25 26 27 28 29 30 31 32 33 34 35 36 37 38 39 40 41 42 43 44 45 46 47 48 49 50

000
ASUS45 KBOU 270007
RWRCO

WEATHER ROUNDUP FOR COLORADO
NATIONAL WEATHER SERVICE DENVER/BOULDER CO
600 PM MDT THU MAY 26 2016

NOTE: "FAIR" INDICATES FEW OR NO CLOUDS BELOW 12000 FEET WITH NO
SIGNIFICANT WEATHER AND/OR OBSTRUCTIONS TO VISIBILITY.

COZ001>005-013-030-031-270100-
...NORTHWEST COLORADO...

CITY           SKY/WX    TMP DP  RH WIND       PRES   REMARKS
CRAIG          FAIR      61  29  29 W14G23    29.89R
HAYDEN         PTSUNNY   59  28  31 N8        29.89S
MEEKER         PTSUNNY   56  30  37 W18G26    29.93R
MOUNT WERNER   NOT AVBL
STEAMBOAT SPGS FAIR      56  31  37 E9G21     29.88F
WALDEN         CLOUDY    46  32  57 S5        29.98F
$$

COZ006>008-011-270100-
...WEST CENTRAL VALLEYS...

CITY           SKY/WX    TMP DP  RH WIND       PRES   REMARKS
GRAND JUNCTION FAIR      68  25  19 VRB5      29.82F
MONTROSE       FAIR      62  32  32 SE16      29.89F
EAGLE          CLOUDY    54  34  47 CALM      29.92F
RIFLE          PTSUNNY   60  33  36 W12       29.88R
DELTA          NOT AVBL
NUCLA          NOT AVBL
$$

COZ017>023-064>068-270100-
...SOUTHWEST COLORADO...

CITY           SKY/WX    TMP DP  RH WIND       PRES   REMARKS
DURANGO        FAIR      59  25  27 NW18      29.91S
CORTEZ         FAIR      57  32  38 E6        29.93S
PAGOSA SPRINGS NOT AVBL
TELLURIDE      NOT AVBL
WOLF CREEK PAS   N/A     27  27 100 S12       30.13S WCI  16
$$

COZ009-010-012-014-032>034-037-058>063-270100-
...CENTRAL COLORADO...

CITY           SKY/WX    TMP DP  RH WIND       PRES   REMARKS
ASPEN          FAIR      56  28  34 N7        29.92F
BUENA VISTA    NOT AVBL
COPPER MTN     NOT AVBL
BERTHOUD PASS  HVY SNOW  27  18  69 MISG      30.10F VSB<1/4
COTTONWOOD PAS CLOUDY    43  32  65 CALM      30.01R
GUNNISON       FAIR      48  30  49 SW13G20   29.98F
KREMMLING      CLOUDY    54  32  43 W8        29.96S
LEADVILLE      PTSUNNY   41  28  60 NE12      30.00F
MONARCH PASS   CLOUDY    32  27  80 SW14G25   30.18F WCI  22
SALIDA         NOT AVBL
SUNLIGHT       LGT SNOW  36  32  87 NE5       30.11F
WILKERSON PASS SNOW      32  30  93 E8        30.09S VSB 1/4 WCI  25
$$

COZ069>075-270100-
...SAN LUIS VALLEY/SANGRE DE CRISTO MOUNTAINS...

CITY           SKY/WX    TMP DP  RH WIND       PRES   REMARKS
ALAMOSA        CLOUDY    51  31  46 W23G33    29.93F
LA VETA PASS   LGT SNOW  34  32  93 S12G22    30.01S WCI  25
SAGUACHE       FAIR      46  32  57 NW16G25   29.96R
$$

COZ035-036-038>040-270100-
...NORTHERN COLORADO FRONT RANGE...

CITY           SKY/WX    TMP DP  RH WIND       PRES   REMARKS
DENVER INTL AP LGT RAIN  46  43  89 NE18      29.91R
DMNS CITY PARK   N/A     49  45  88 NE13      29.93S
AURORA         LGT RAIN  46  46  99 NE6       29.93F
FRONT RANGE AP RAIN      46  45  93 N17G28    29.93S
ERIE MUNI ARPT PTSUNNY   49  45  85 N8        29.93F
BOULDER MUN AP CLOUDY    50  45  81 N5        29.93F
CENTENNIAL     LGT RAIN  47  43  86 N9        29.93F
BROOMFIELD     PTSUNNY   48  45  87 N13       29.94S
FORT COLLINS   FAIR      50  43  76 N7        29.92F
LONGMONT       PTSUNNY   53  46  77 CALM      29.94F
$$

COZ041-046-047-076>085-087-088-270100-
...PIKES PEAK/PALMER DIVIDE AND SOUTHERN FOOTHILLS...

CITY           SKY/WX    TMP DP  RH WIND       PRES   REMARKS
COLO. SPRINGS  LGT RAIN  45  39  79 N13       29.94R
A. F. ACADEMY  RAIN      45  41  87 NW9       29.95R
SCHRIEVER AFB  NOT AVBL
ELLICOTT       TSTM     N/A N/A N/A E8        29.93R
FALCON         LGT RAIN  40  37  90 N7        29.96S
FORT CARSON    LGT RAIN  48  42  80 N18       29.88S
LIMON          RAIN      46  44  93 W10       29.97R FOG
MONUMENT HILL  RAIN      41  39  93 MISG      29.98R
TRINIDAD       FAIR      64  32  30 NW18      29.77R
$$

COZ042>045-048>051-090-091-270100-
...NORTHEAST COLORADO...

CITY           SKY/WX    TMP DP  RH WIND       PRES   REMARKS
GREELEY ARPT   CLOUDY    50  45  81 NE7       29.89F
AKRON          NOT AVBL
BURLINGTON     FAIR      65  53  65 SW44G60   29.79R SQUALL  HAZE
WRAY           NOT AVBL
STERLING       CLOUDY    59  43  55 N20G30    29.80F
HOLYOKE        NOT AVBL
FORT MORGAN    NOT AVBL
$$

COZ086-089-092>099-270100-
...SOUTHEAST COLORADO...

CITY           SKY/WX    TMP DP  RH WIND       PRES   REMARKS
PUEBLO         FAIR      55  44  66 N17       29.80R
LA JUNTA       FAIR      58  47  66 N18       29.74R
LAMAR          FAIR      62  44  51 NW26G36   29.67R
SPRINGFIELD      N/A     77  13   9 S23G37    29.66R
$$



USA.gov is the U.S. government's official web portal to all federal, state and local government web resources and services.